Regional Weather Roundup
Issued by NWS Charleston, SC

Current Version | Previous Version | Graphics & Text | Print | Product List | Glossary On
Versions: 1 2 3 4 5 6 7 8 9 10 11 12 13 14 15 16 17 18 19 20 21 22 23 24 25 26 27 28 29 30 31 32 33 34 35 36 37 38 39 40 41 42 43 44 45 46 47 48 49 50
000
ASUS42 KCHS 040712
RWRCHS

REGIONAL WEATHER ROUNDUP
NATIONAL WEATHER SERVICE CHARLESTON SC
300 AM EDT TUE AUG 04 2015

NOTE: "FAIR" INDICATES FEW OR NO CLOUDS BELOW 12,000 FEET WITH NO
SIGNIFICANT WEATHER AND/OR OBSTRUCTIONS TO VISIBILITY.

NOT ALL STATIONS ARE QUALITY CONTROLLED BY THE NATIONAL
WEATHER SERVICE. USE DATA WITH CAUTION...ESPECIALLY
DEWPOINT OBSERVATIONS.

SCZ027-030-031-034>040-042>050-040800-
...SOUTHEAST SOUTH CAROLINA...

CITY           SKY/WX    TMP DP  RH WIND       PRES   REMARKS
N CHARLESTON   TSTM      77  75  93 NE8       29.88F
WATERFRONT PRK   N/A     78  77  96 S5        29.87F
MOUNT PLEASANT HVY RAIN  77  77 100 CALM      29.89F VSB 1
JOHNS ISLAND   TSTM      79  77  94 S8        29.87F
PINOPOLIS      NOT AVBL
MONCKS CORNER  NOT AVBL
SUMMERVILLE    PTSUNNY   75  75 100 CALM      29.90F
BEAUFORT MCAS  CLOUDY    78  76  93 N7        29.89R
BEAUFORT ARPT  PTSUNNY   77  77 100 CALM      29.88R
HILTON HEAD IS MOCLDY    79  79 100 CALM      29.89S
WALTERBORO     SUNNY     77  73  88 NE3       29.90S
ALLENDALE      PTSUNNY   75  73  94 CALM      29.89F

...SOUTHERN MIDLANDS AND PEE DEE...

CITY           SKY/WX    TMP DP  RH WIND       PRES   REMARKS
GEORGETOWN     NOT AVBL
KINGSTREE      NOT AVBL
ORANGEBURG     PTCLDY    75  73  93 NE5       29.92S
BARNWELL       FAIR      75  73  94 N3        29.92S
AIKEN          FAIR      70  68  94 CALM      29.97S
MANNING        HVY RAIN  72  72 100 CALM      29.92S
COLUMBIA       PTCLDY    76  71  85 CALM      29.92F
SUMTER         CLEAR     74  72  93 N5        29.91F
FLORENCE       PTCLDY    76  74  93 E5        29.93F
MYRTLE BEACH   CLOUDY    75  70  83 S9        29.99R THUNDER
N MYRTLE BEACH TSTM      75  71  87 S23G38    29.97R FOG

$$

GAZ063-065-086>088-099>101-113>116-118-119-134>141-150-040800-
...SOUTHEAST GEORGIA...

CITY           SKY/WX    TMP DP  RH WIND       PRES   REMARKS
SAVANNAH ARPT  CLOUDY    76  74  93 N6        29.90R FOG
HUNTER AAF     MOCLDY    76  76 100 W2        29.87S
FORT STEWART   NOT AVBL
STATESBORO     CLEAR     74  32  21 CALM      29.90F HAZE
SYLVANIA       CLOUDY    76  76 100 CALM      29.91S FOG
CLAXTON        NOT AVBL

...CSRA...CENTRAL AND FAR SOUTHEAST GEORGIA...

CITY           SKY/WX    TMP DP  RH WIND       PRES   REMARKS
THOMSON        CLEAR     74  74 100 CALM      29.99S
AUGUSTA-BUSH   CLEAR     73  71  93 N3        29.91F
AUGUSTA-DANIEL CLEAR     76  72  87 N5        29.93F
SWAINSBORO     PTSUNNY  N/A N/A N/A CALM      29.93S FOG
VIDALIA        FOG       75  73  94 CALM      29.92F VSB 3/4
EASTMAN        FAIR      73  73 100 CALM      29.96S FOG
HAZLEHURST     FOG       77  77 100 CALM      29.91F VSB 3/4
ALMA           CLEAR     76  75  97 CALM      29.90F
WAYCROSS       CLEAR     78  78  99 CALM      29.90S
JESUP          FAIR      77  77 100 CALM      29.90S FOG
BAXLEY         FAIR      77  75  94 CALM      29.90F
BRUNSWICK      CLOUDY    77  77 100 CALM      29.91S
SAINT SIMONS   CLOUDY    79  76  90 SW5       29.91R

$$

SCZ027-028-034-036>038-045-046-048>050-GAZ119-141-040800-
...LAKE AND SUPPLEMENTAL COASTAL OBSERVATIONS...

STATION/POSITION TIME  TEMP    WIND        PRES    WAVE   SWELL
                       AIR SEA DIR/SP/G            HT/PER HT/PER/DIR
                 (UTC) (F)     (DEG/KT/KT) (MB)    (FT/S) (FT/S/D)
UPR LAKE MARION  NOT AVBL
WINYAH BAY       0545   77     190/ 17     1013.0
LAKE MURRAY      0600   78     110/  3/  6 1013.2F
ACE BASIN NERRS  NOT AVBL
FORT PULASKI     0600   78 85  310/  8/ 10 1012.5R
SAPELO ISLAND    0600   80     290/  3     1012.0S

$$

ANZ835-935-AMZ111-154-330-350-352-354-370-450-454-472-040800-
...C-MAN AND BUOY OBSERVATIONS...

STATION/POSITION TIME  TEMP    WIND        PRES    WAVE   SWELL
                       AIR SEA DIR/SP/G            HT/PER HT/PER/DIR
                 (UTC) (F)     (DEG/KT/KT) (MB)    (FT/S) (FT/S/D)
BUOY 41004       0650   79 83  170/ 12/ 17 1012.1F   7/ 7   5/ 7
BUOY 41008       0650   81 83  280/ 10/ 14 1012.2R   4/ 7   3/150/ 7
FOLLY BEACH CMAN 0600   79     160/ 13/ 16 1012.4F
CAPERS NEARSHORE 0608   79     210/ 14/ 19 1012.7F
FRIPP NEARSHORE  0600   82     250/ 12/ 14 1011.3F


STATION/POSITION TIME  TEMP    WIND        PRES    WAVE   SWELL
                       AIR SEA DIR/SP/G            HT/PER HT/PER/DIR
                 (UTC) (F)     (DEG/KT/KT) (MB)    (FT/S) (FT/S/D)
5E ST. MARYS GA  0621      82                N/A     3/ 6
FRYING PAN BUOY  0650   83 82  160/ 16/ 19 1014.9F   5/ 7   3/150/ 8
BUOY 41025       0650   82 84  200/ 19/ 21 1015.6F   5/ 5   2/120/11
CAPE LOOKOUT NC  0600   81     200/  9/ 12 1015.3F
BUOY 41002       0650   82 81  190/ 14/ 16 1017.9F   5/ 7   3/210/ 7
BUOY 41010       0620   83 84  210/ 14/ 16 1016.5S
ST AUGUSTINE FL  0700   75 78  240/  5/  7 1014.8R


$$



USA.gov is the U.S. government's official web portal to all federal, state and local government web resources and services.